Regional Weather Roundup
Issued by NWS

Home | Current Version | Previous Version | Graphics & Text | Print | Product List | Glossary On
Versions: 1 2 3 4 5 6 7 8 9 10 11 12 13 14 15 16 17 18 19 20 21 22 23 24 25 26 27 28 29 30 31 32 33 34 35 36 37 38 39 40 41 42 43 44 45 46 47 48 49 50
000
ASUS43 KIND 010859
RWRIN

WEATHER ROUNDUP FOR INDIANA
NATIONAL WEATHER SERVICE INDIANAPOLIS IN
500 AM EDT WED JUL 01 2015

NOTE: "FAIR" INDICATES FEW OR NO CLOUDS BELOW 12,000 FEET WITH NO
SIGNIFICANT WEATHER AND/OR OBSTRUCTIONS TO VISIBILITY.

* - STATION DOES NOT REPORT WEATHER SUCH AS PRECIPITATION OR FOG.

+ - STATION NOT QUALITY CONTROLLED BY THE NATIONAL WEATHER SERVICE.
    USE DATA WITH CAUTION...ESPECIALLY DEWPOINT AND RELATIVE
    HUMIDITY OBSERVATIONS.

INZ001>003-010>013-019-020-011000-
NORTHWEST INDIANA

CITY           SKY/WX    TMP DP  RH WIND       PRES   REMARKS
RENSSELAER +   PTCLDY    59  59 100 NW3       29.92S FOG

$$

LMZ046-743>745-011000-
SOUTHERN LAKE MICHIGAN

STATION/POSITION TIME  TEMP    WIND        PRES    WAVE
                       AIR SEA DIR/SP/G            HT
                 (UTC) (F)     (DEG/KT/KT) (MB)    (FT)
BURNS HARBOR     0800   59      10/ 10/ 13 1013.9S
MICHIGAN CITY    0800   58     290/  8/ 10   N/A
5NW MICH CITY    0800   59 65  360/ 12/ 14   N/A     4

$$

INZ004-005-014>016-021>024-011000-
NORTH CENTRAL INDIANA

CITY           SKY/WX    TMP DP  RH WIND       PRES   REMARKS
GOSHEN         CLEAR     56  54  93 W9        29.89S
SOUTH BEND     PTCLDY    57  56  96 W9        29.92R

$$

INZ006>009-017-018-025>027-011000-
NORTHEAST INDIANA

CITY           SKY/WX    TMP DP  RH WIND       PRES   REMARKS
ANGOLA *+      PTCLDY    55  55 100 W5        29.87S
FORT WAYNE     PTCLDY    58  56  93 NW6       29.89R

$$

INZ028-029-035-036-043>045-051>053-011000-
WEST CENTRAL INDIANA

CITY           SKY/WX    TMP DP  RH WIND       PRES   REMARKS
CRAWFORDSVL +  PTCLDY    58  57  98 NE3       29.91S FOG
GREENCASTLE +  PTCLDY    63  59  88 CALM      29.90F
LAFAYETTE      PTCLDY    60  56  86 NE6       29.90F
TERRE HAUTE    MOCLDY    62  62 100 CALM      29.89S FOG

$$

INZ030>032-037>040-046>048-054>057-064-065-011000-
CENTRAL INDIANA

CITY           SKY/WX    TMP DP  RH WIND       PRES   REMARKS
GREENWOOD *+   CLEAR     61  59  94 CALM      29.90F
INDIANAPOLIS   MOCLDY    64  60  87 N5        29.88F
-EAGLE CREEK   CLEAR     63  60  90 N3        29.89F
KOKOMO *+      CLEAR     57  55  94 NW6       29.91S
MT COMFORT *+  PTCLDY    61 N/A N/A CALM      29.90F
SHELBYVILLE    CLEAR     61  58  90 N6        29.89S FOG

$$

INZ033-034-041-042-049-050-058-059-011000-
EAST CENTRAL INDIANA

CITY           SKY/WX    TMP DP  RH WIND       PRES   REMARKS
MUNCIE         CLEAR     61  58  90 W5        29.90S

$$

INZ060-061-067>069-081>083-085>088-011000-
SOUTHWEST INDIANA

CITY           SKY/WX    TMP DP  RH WIND       PRES   REMARKS
EVANSVILLE     MOCLDY    72  68  87 W6        29.89F
HUNTINGBURG *+ PTCLDY    68  64  88 S3        29.89S

$$

INZ062-063-066-070>080-084-089>092-011000-
SOUTH CENTRAL AND SOUTHEAST INDIANA

CITY           SKY/WX    TMP DP  RH WIND       PRES   REMARKS
BLOOMINGTON    FOG       60  59  96 CALM      29.90S VSB 1/2
MADISON *+       N/A     63  61  94 CALM      29.91S VSB 1/2
SEYMOUR +      FOG       63  63 100 CALM      29.89S VSB 1/4

$$




USA.gov is the U.S. government's official web portal to all federal, state and local government web resources and services.